This is the latest recevied weather packets stored in our database for station/object N5GAH-13. If no packets are shown the sender has not sent any weather packets the latest 10 day(s).
| Time | Temp. | Humidity | Pressure | Rain* | Wind** | Luminosity | Snow |
|---|---|---|---|---|---|---|---|
| 1777616610 | 12.22° C | 91% | 1020.1 hPa | 0 mm | - | - | - |
| 1777613009 | 12.22° C | 90% | 1020.7 hPa | 0 mm | - | - | - |
| 1777611209 | 12.22° C | 90% | 1020.5 hPa | 0 mm | - | - | - |
| 1777609409 | 12.78° C | 89% | 1019.6 hPa | 0 mm | - | - | - |
| 1777605811 | 13.33° C | 88% | 1020 hPa | 0 mm | - | - | - |
| 1777604009 | 13.33° C | 88% | 1020 hPa | 0 mm | - | - | - |
| 1777602209 | 13.33° C | 88% | 1019.3 hPa | 0 mm | - | - | - |
| 1777600409 | 13.33° C | 87% | 1018.9 hPa | 0 mm | - | - | - |
| 1777598610 | 13.89° C | 87% | 1018.3 hPa | 0 mm | - | - | - |
| 1777596809 | 13.89° C | 86% | 1018.5 hPa | 0 mm | - | - | - |
| 1777595009 | 13.89° C | 85% | 1018 hPa | 0 mm | - | - | - |
| 1777593211 | 13.89° C | 85% | 1018.1 hPa | 0 mm | - | - | - |
| 1777591409 | 13.89° C | 84% | 1017.2 hPa | 0 mm | - | - | - |
| 1777589609 | 13.89° C | 84% | 1017.8 hPa | 0 mm | - | - | - |
| 1777584210 | 15° C | 81% | 1017.7 hPa | 0 mm | - | - | - |
| 1777582411 | 15° C | 80% | 1018.7 hPa | 0 mm | - | - | - |
| 1777580610 | 15° C | 75% | 1019.4 hPa | 0 mm | - | - | - |
| 1777578811 | 14.44° C | 72% | 1020.1 hPa | 0 mm | - | - | - |
| 1777577009 | 14.44° C | 70% | 1020.6 hPa | 0 mm | - | - | - |
| 1777575211 | 13.89° C | 70% | 1019.6 hPa | 0 mm | - | - | - |
| 1777573410 | 13.33° C | 71% | 1020.7 hPa | 0 mm | - | - | - |
| 1777571611 | 13.33° C | 72% | 1020.2 hPa | 0 mm | - | - | - |
| 1777569810 | 12.78° C | 73% | 1020.4 hPa | 0 mm | - | - | - |
| 1777568011 | 12.78° C | 73% | 1020.7 hPa | 0 mm | - | - | - |
| 1777566210 | 12.78° C | 75% | 1020.2 hPa | 0 mm | - | - | - |
* Rain latest hour (hover to see other rain measurements)
** Current wind speed in m/s (hover to see current wind gust speed)